Simultaneous Nadir Overpasses (SNOs) Predictions

Prediction of SNOs between GOES-17 and METOP-A Satellite Orbit:

Table of predicted SNOs for the next 14.0 days since TLE Epoch: 9/11/2020
Index Date Time (GOES-17) GOES-17 Lat,Lon METOP-A Lat,Lon Distance(km) Time Diff (sec)
1 09/12/2020 17:45:31 -0.03,-137.20 0.25,-138.37 133.52 80
2 09/13/2020 17:27:32 -0.02,-137.20 -0.89,-133.40 433.62 80
3 09/15/2020 05:43:54 0.03,-137.19 -0.13,-138.03 95.49 80
4 09/16/2020 05:25:54 0.03,-137.19 0.95,-133.05 471.34 80
5 09/17/2020 17:42:07 -0.03,-137.19 0.07,-137.65 52.42 80
6 09/20/2020 05:40:28 0.03,-137.16 0.01,-137.30 15.79 80
7 09/22/2020 17:41:21 -0.03,-137.14 -0.07,-136.92 25.29 80
8 09/25/2020 05:39:43 0.02,-137.10 0.14,-136.57 59.74 80
